Location: Casteau
(50.5142°N, 4.0161°E)
Time: 00:30:30
(UTC+00:00)

S-56A Canister/Altair - Pass Details

Date: 02 August 2021
Orbit: 632 x 2500 km, 38.9° (Epoch: 19 September)

Event Time Altitude Azimuth Distance (km) Brightness Sun altitude
Rises 12:30:27 0° 197° (SSW) 5,157 12.3 56.1°
Reaches altitude 10° 12:34:28 10° 184° (S) 4,437 12.1 55.9°
Maximum altitude 12:43:44 25° 137° (SE) 3,841 11.6 55.4°
Drops below altitude 10° 12:54:20 10° 92° (E) 5,160 11.7 54.7°
Sets 12:59:27 0° 81° (E) 6,171 11.9 54.3°
